Probability
6 6 6 6 7 8 6 4 4 4 3 4 6 7 7 5 2 0 0 0 0 0 0 0 0 0 0 0 1 1 1 0 0 0 0 1 2 3
6 6 6 6 7 8 7 5 4 4 3 4 5 6 6 3 1 0 0 0 0 0 0 0 0 0 0 0 0 0 0 0 0 0 0 1 2 3
6 5 5 5 7 8 7 5 4 4 4 3 3 3 3 2 1 0 0 0 0 0 0 0 0 0 0 0 0 0 0 0 0 0 0 1 2 2
6 5 4 4 6 7 7 5 4 4 4 2 1 1 2 1 1 1 1 1 1 0 0 0 0 0 0 0 0 0 0 0 0 0 0 0 1 1
7 6 5 4 6 6 6 6 5 4 3 1 0 1 2 1 1 1 2 3 1 0 0 0 0 0 0 0 0 0 0 0 0 0 0 0 0 0
6 6 5 4 5 4 4 5 5 3 2 1 0 1 1 1 1 0 1 2 1 0 0 1 1 1 1 0 0 0 0 0 0 0 0 0 0 0
2 4 4 3 3 3 3 3 3 3 1 0 0 0 1 2 1 0 0 1 1 1 1 2 2 2 2 1 0 0 0 0 0 0 0 0 0 0
2 3 3 3 2 1 1 1 1 1 1 0 0 0 1 2 1 0 0 0 0 1 1 1 2 2 2 2 0 0 0 0 0 0 0 0 0 0
4 4 4 4 3 2 1 1 1 1 1 1 0 0 1 1 1 1 1 0 1 1 1 0 0 1 2 1 0 0 0 0 0 0 0 0 0 0
5 5 5 5 3 2 2 2 1 0 0 0 0 0 0 1 2 2 1 1 1 1 1 0 0 0 1 1 0 0 0 0 0 0 0 0 0 0
6 5 5 4 2 1 1 1 1 0 0 0 0 0 0 1 1 1 1 0 1 1 1 0 0 0 0 0 0 0 0 0 0 0 0 0 0 0
6 5 3 1 0 0 0 0 0 0 0 0 0 0 0 0 1 1 0 0 0 0 0 0 0 0 0 0 0 1 1 1 0 0 0 0 0 0
4 4 2 1 0 0 0 0 0 0 0 0 0 0 0 1 2 2 1 1 0 0 0 0 1 0 0 0 0 1 2 2 1 1 1 0 0 0
2 2 2 1 0 0 0 0 0 0 0 1 1 0 0 1 3 3 2 2 1 0 0 1 1 0 0 0 0 0 1 1 1 1 1 0 0 0
1 1 1 0 0 0 0 0 0 0 1 2 2 1 0 1 2 2 2 1 1 0 1 2 3 2 0 0 0 0 0 0 0 1 1 0 0 1
0 0 0 0 0 0 0 1 1 1 1 2 2 1 1 1 2 2 1 1 0 0 0 2 4 3 1 0 0 0 0 0 0 0 0 0 0 1
0 0 0 0 0 0 0 1 1 1 1 2 3 3 1 1 2 2 2 1 0 0 0 1 2 3 2 0 0 0 0 0 0 0 1 0 0 1
0 0 0 0 0 0 0 1 1 1 1 2 3 3 1 1 1 2 1 0 0 0 0 0 1 1 1 0 0 0 0 0 0 0 0 0 0 0
0 0 0 0 0 0 0 0 0 0 1 1 1 1 0 0 0 0 0 0 0 0 0 0 0 0 0 0 0 0 0 0 0 0 0 0 0 0
0 0 0 0 0 0 0 0 0 0 0 0 0 0 0 0 0 0 0 0 0 0 0 0 0 0 0 0 0 0 0 0 0 0 0 0 0 0
0 0 0 0 0 0 0 0 0 0 0 0 0 0 0 0 0 0 0 0 0 0 0 0 0 0 0 0 0 0 0 0 0 0 0 0 0 0
0 0 0 0 0 0 0 0 0 0 0 0 0 0 0 0 0 0 0 0 0 0 0 0 0 0 0 0 0 0 0 0 0 0 0 0 0 0
0 0 0 0 0 0 0 0 0 0 0 0 0 0 0 0 0 0 0 0 0 0 0 0 0 0 0 0 0 0 0 0 0 0 0 0 0 0
Wind_Speed
5 5 5 5 5 5 5 6 6 7 7 6 5 4 4 4 3 5 6 4 5 7 8 8 9 9 9 8 8 8 9 9 9 10 10 10 11 12
4 5 6 5 5 5 5 6 6 7 7 6 5 5 5 5 4 6 6 6 9 9 9 8 8 9 9 9 9 9 9 9 9 10 10 11 11 11
5 5 6 6 6 5 5 6 6 6 8 8 6 6 6 6 5 6 6 6 5 8 9 9 8 9 9 9 9 9 9 10 10 10 10 11 11 11
5 5 6 5 6 6 5 6 6 6 7 9 7 6 7 6 6 6 6 6 6 6 8 9 9 9 9 9 9 8 9 10 10 10 11 11 11 11
5 6 6 6 7 6 7 6 6 6 6 7 7 6 6 5 6 6 6 5 7 5 8 10 11 10 10 9 9 9 9 10 10 11 11 11 11 11
5 6 6 6 6 7 6 6 6 7 7 7 7 6 5 5 5 5 5 5 5 5 4 6 8 11 11 10 10 10 10 10 10 11 11 11 11 11
6 6 6 5 6 6 6 7 7 6 6 6 6 6 6 4 5 5 6 5 5 4 4 5 5 6 7 10 12 11 10 10 10 11 11 11 11 11
6 6 6 4 5 7 8 8 9 8 8 7 6 7 7 6 5 5 6 6 5 3 4 5 5 5 5 5 6 9 10 10 10 11 11 11 11 11
6 6 6 5 5 6 6 8 9 10 10 9 9 8 8 6 6 7 6 7 6 5 5 6 5 5 5 4 6 8 9 10 9 9 10 11 11 11
6 6 6 6 5 6 8 7 7 6 7 8 8 9 8 7 6 7 8 8 8 6 6 7 6 5 5 4 7 9 10 10 9 9 9 10 11 10
6 5 5 5 4 5 7 7 8 7 5 6 7 8 9 9 8 7 7 7 7 6 5 6 6 5 5 5 6 11 11 11 10 10 10 10 10 10
5 4 2 3 4 5 7 7 8 8 8 7 6 8 9 8 9 9 8 7 7 6 4 4 6 6 5 4 4 5 7 10 11 11 10 11 10 8
5 5 3 1 4 6 7 7 8 9 9 8 7 6 5 5 5 6 6 6 7 7 5 5 6 6 5 5 4 4 5 5 6 8 11 12 12 10
6 5 4 4 7 8 6 6 8 8 7 6 6 5 5 5 5 5 6 6 7 8 8 7 6 6 6 6 6 5 5 5 5 6 6 10 11 12
5 6 7 8 9 7 5 7 7 5 5 6 6 6 6 6 6 5 6 6 8 8 8 8 8 7 7 7 7 6 5 5 6 6 5 5 6 7
5 5 7 9 8 6 6 5 4 4 5 5 6 6 5 5 5 6 6 5 5 6 6 6 7 8 7 8 7 7 6 5 5 5 5 5 5 6
7 5 5 5 5 5 5 4 4 4 4 5 6 6 6 6 6 5 5 5 6 6 5 4 5 6 7 7 7 8 7 6 5 4 4 5 5 6
6 4 5 5 6 6 6 6 5 5 5 6 6 6 6 7 7 6 5 6 6 6 6 5 5 5 6 6 6 8 7 6 4 4 5 6 6 5
4 5 5 6 6 7 7 7 7 6 6 6 6 7 7 7 7 7 6 6 6 6 6 5 5 6 7 7 5 5 6 6 5 5 5 5 6 5
4 5 6 5 6 6 7 7 7 7 7 7 7 7 7 7 7 7 6 7 7 7 7 6 5 6 6 7 7 5 5 6 5 5 5 5 4 3
5 5 6 6 6 6 7 7 7 7 8 7 7 7 7 8 8 8 7 7 7 7 7 7 6 6 6 6 6 6 4 4 4 4 5 5 5 4
6 6 6 6 6 7 7 7 7 7 8 7 8 8 8 8 8 9 9 8 7 7 8 7 7 6 6 6 6 6 5 3 3 3 2 4 5 5
6 6 6 6 6 6 7 8 9 8 8 8 8 8 9 8 8 8 8 8 8 8 8 7 6 5 5 6 5 5 5 5 4 3 3 4 6 5
Wind_Direction
272 268 272 278 274 276 273 273 281 288 292 293 291 285 277 275 264 261 264 230 229 242 246 249 250 248 253 256 250 245 240 239 240 240 238 236 233 228
275 278 279 279 280 275 273 274 272 274 284 289 291 293 293 284 263 267 264 233 230 231 236 240 244 246 247 253 251 243 237 234 235 236 235 233 231 228
277 278 279 281 282 283 281 276 273 272 277 287 292 293 286 279 278 274 267 258 243 213 221 229 236 241 244 248 246 243 238 235 237 237 236 232 228 226
280 281 286 287 285 281 280 278 278 274 273 282 287 286 286 281 275 272 272 270 269 219 214 224 230 235 240 243 242 241 238 237 237 236 234 231 227 223
279 282 284 286 286 290 286 285 283 278 273 274 280 284 281 281 279 271 270 270 270 234 212 219 226 231 237 237 238 239 239 238 238 237 234 229 225 219
283 282 282 284 287 291 287 286 286 284 279 275 279 282 282 284 282 278 275 269 270 270 258 244 227 222 228 230 232 233 235 238 239 236 231 225 219 217
290 289 288 286 285 281 288 296 294 287 285 285 287 290 293 294 292 294 284 280 274 263 265 259 240 237 224 220 224 228 229 234 236 228 223 220 217 215
294 297 292 272 274 258 257 267 273 279 286 288 287 294 297 298 297 289 287 288 283 263 267 268 258 255 249 241 210 207 218 227 229 222 219 217 215 214
291 293 297 311 301 302 287 256 250 243 248 266 279 284 288 293 293 285 282 285 286 286 276 271 264 259 255 242 185 203 216 222 223 219 216 214 213 212
287 287 291 300 316 318 305 301 294 281 256 248 265 275 282 285 282 279 278 270 266 254 244 265 268 266 262 239 191 207 219 221 221 220 217 214 210 208
288 290 291 299 330 315 298 298 300 299 274 252 261 267 275 275 272 270 269 269 272 268 243 256 268 270 268 257 214 204 214 219 222 222 218 215 211 207
299 292 291 297 315 306 297 299 299 305 307 296 266 254 254 253 240 247 265 274 280 279 266 260 271 272 269 260 247 213 217 218 220 221 219 217 208 213
308 309 334 15 300 292 287 291 297 300 295 288 283 279 273 268 259 251 256 265 275 282 286 276 276 276 271 272 266 248 241 230 213 216 215 213 206 212
306 315 331 322 297 287 287 294 291 286 284 291 295 297 297 294 290 282 275 265 265 270 280 279 273 275 278 274 272 264 251 245 242 237 219 194 202 212
304 315 301 286 283 277 262 269 276 282 296 302 304 305 306 305 297 284 276 268 266 266 264 258 259 266 270 273 276 273 266 254 244 240 235 216 209 204
307 301 266 256 258 275 284 276 279 299 301 299 301 302 301 294 287 287 285 280 275 275 269 264 261 262 263 268 273 273 268 263 254 245 238 233 225 223
321 303 311 325 326 329 325 319 310 302 300 304 303 303 302 300 296 294 290 290 287 290 292 278 256 252 260 271 270 269 269 266 260 253 241 246 244 237
301 317 334 338 335 334 331 330 328 324 323 316 310 307 306 306 303 300 296 293 293 295 295 296 289 273 261 253 248 267 269 267 270 264 250 245 249 244
305 334 338 338 335 331 332 332 332 333 327 320 319 319 317 313 309 306 305 302 299 297 296 297 291 282 281 283 265 239 262 267 266 265 259 253 255 257
342 346 343 340 337 336 336 336 335 334 333 331 329 327 325 320 315 311 311 314 310 307 303 299 297 292 286 286 288 282 249 260 259 262 267 261 260 254
352 349 345 342 341 339 335 334 334 334 337 332 328 327 325 322 321 320 315 313 305 305 309 309 312 297 285 280 275 274 264 224 247 267 271 268 262 255
352 350 347 342 340 339 336 336 336 336 335 334 335 332 328 326 325 323 321 320 316 313 314 313 313 304 293 287 285 286 285 266 209 206 254 272 271 267
352 344 340 341 345 342 340 340 339 339 342 340 336 332 329 326 325 323 323 323 324 321 316 316 315 309 306 305 302 304 304 298 287 267 249 233 220 222